Airfield :
LOGIN :

Register | Disclaimer

   EN    FR    IT 

 










Legend :    VFR   Marginal VFR   IFR   Intensive IFR   Very Intensive IFR
Visi :
Ceiling :
>= 8 km
>= 3000ft
5 to 8 km
1000 to 3000 ft
1500m to 5 km
500 to 1000 ft
800 to 1500m
200 to 500 ft
< 800m
< 200 ft
Symbols :   Thunderstorms  Fog  Heavy snow  Heavy precipitations  Wind > 20 kt
SIGMETs :     Misc.  Thunderstorms  Icing  Turbulence  Mountain Waves  Volcanic Ashes







- Airport Elevation : 465 ft
- IATA code : LEJ


EDDP - Leipzig Halle

CURRENT METAR :
  • 270650Z 22012KT CAVOK 18/11 Q1008 NOSIG

EXPIRED METARs :
  • 270620Z 21011KT CAVOK 17/10 Q1008 NOSIG
  • 270550Z 21012KT CAVOK 17/10 Q1008 NOSIG
  • 270520Z 21010KT CAVOK 16/09 Q1008 NOSIG
  • 270450Z 19007KT CAVOK 16/09 Q1008 NOSIG
  • 270420Z 17007KT CAVOK 15/09 Q1008 NOSIG

TAF TAF EDDP
Valid from the 27 at 06:00 until the 28 at 06:00 UTC


270500Z 2706/2806 25010KT 9999 SCT040
BECMG 2715/2717 26004KT
BECMG 2801/2803 32005KT
No reported NOTAMs for that airfield.



MET'MAP, your aeronautical weather chart ! - Copyright ORBIFLY December 2007 - Disclaimer

ORBIFLY MET'MAP TEAM :

Programming & Development : Alexandra Zaïnal
Concept & Development : Baudouin d'Aumeries
Co-Development & Prog : Marc-Olivier Méhu
Technical & hardware support : Manuel Goepfert

Contact : metmap@orbifly.com




SOURCES & CREDITS :

   NOAA